User: anonymous
Location: Caltech
(34.1382°N, 118.1253°W)
Time: 17:22:58
(UTC-07:00)
Language:

Gbstr 26 Del rocket - Orbit

View from above orbital plane
View from above orbital plane
View from above satellite
View from above satellite

Ground track
Ground track

The orbit data is extracted from the following two-line orbital elements,

1 25876U 99041E   14232.29072350  .00000004  00000-0  40238-4 0  4430
2 25876 051.7685 064.2811 0539700 263.3962 142.8091 14.02154348769716
Epoch (UTC): 20 August 2014 06:58:38
Eccentricity: 0.0539700
inclination: 51.7685°
perigee height: 494 km
apogee height: 1278 km
right ascension of ascending node: 64.2811°
argument of perigee: 263.3962°
revolutions per day: 14.02154348
mean anomaly at epoch: 142.8091°
orbit number at epoch: 76971

The dashed part of the orbit path shows where the satellite is in the earth's shadow,  

DLR